Regional Weather Roundup
Issued by NWS Newport/Morehead, NC

Current Version | Previous Version | Graphics & Text | Print | Product List | Glossary Off
Versions: 1 2 3 4 5 6 7 8 9 10 11 12 13 14 15 16 17 18 19 20 21 22 23 24 25 26 27 28 29 30 31 32 33 34 35 36 37 38 39 40 41 42 43 44 45 46 47 48 49 50

000
ASUS42 KMHX 300513
RWRMHX
WEATHER ROUNDUP FOR EASTERN NORTH CAROLINA
NATIONAL WEATHER SERVICE NEWPORT/MOREHEAD CITY NC
100 AM EDT SAT APR 30 2016

NOTE: "FAIR" INDICATES FEW OR NO CLOUDS BELOW 12,000 FEET
WITH NO SIGNIFICANT WEATHER AND/OR OBSTRUCTIONS TO VISIBILITY

NCZ015>017-031-032-045>047-102-103-300600-
NORTH COAST

CITY           SKY/WX    TMP DP  RH WIND       PRES   REMARKS
EDENTON        CLOUDY    58  58  98 N8        30.06R
ELIZABETH CITY CLOUDY    55  53  93 N13       30.06R
KITTY HAWK     CLOUDY    55  54  97 NE5       30.03F FOG
MANTEO         NOT AVBL

$$

NCZ045>047-081-094-103-104-300600-
CENTRAL COAST

CITY           SKY/WX    TMP DP  RH WIND       PRES   REMARKS
FRISCO         CLOUDY    58  56  93 VRB7      30.03R
SWANQUARTER    NOT AVBL

$$

NCZ095-097-098-100-101-300600-
SOUTHERN COAST

CITY           SKY/WX    TMP DP  RH WIND       PRES   REMARKS
BEAUFORT       CLOUDY    64  62  93 E3        30.01S
CEDAR ISLAND   NOT AVBL
JACKSONVILLE   CLEAR     60  57  89 SW5       30.01R
PINEY ISLAND   NOT AVBL
WILMINGTON     CLEAR     65  61  87 CALM      30.01R


$$

NCZ011>013-027>030-043-044-078>080-089-090>093-098-300600-
COASTAL PLAIN

CITY           SKY/WX    TMP DP  RH WIND       PRES   REMARKS
AHOSKIE        CLOUDY    57  55  90 N7        30.08R
CLINTON        CLEAR     63  60  91 CALM      30.02R
ELIZABETHTOWN  PTCLDY    66  62  88 S3        30.01R
GOLDSBORO      CLEAR     59  59 100 CALM      30.01R
GREENVILLE     CLEAR     59  59 100 CALM      30.06R
HAVELOCK       CLEAR     58  56  93 SE5       30.02R
KENANSVILLE    CLEAR     59  57  95 CALM      30.03R
KINSTON        CLEAR     58  56  95 CALM      30.03S
NEW BERN       CLEAR     62  58  86 E5        30.02R
RICHLANDS      CLEAR     57  56  96 CALM      30.02R FOG
ROCKY MOUNT    PTCLDY    58  57  97 CALM      30.06R
WASHINGTON     PTCLDY    57  56  97 NE5       30.04R
WHITEVILLE     MOCLDY    65  63  92 CALM      30.01R

$$

AMZ130-135-150-152-154-156-158-170-250-252-270-ANZ085-086-088-633-658-670-300600-
MARINE OBSERVATIONS

STATION/POSITION TIME  TEMP    WIND        PRES    WAVE   SWELL
                       AIR SEA DIR/SP/G            HT/PER HT/PER
                 (UTC) (F)     (DEG/KT/KT) (MB)    (FT/S) (FT/S)
CHESAPEAKE LIGHT 0500   53      20/ 15/ 15 1018.7
64 E VA BEACH    0450   53 53  350/ 14/ 16 1016.6    6/ 9   5/ 9
DUCK             0400   54 66   20/ 12/ 16 1017.0
2 E DUCK         0411      58                N/A     4/ 9   2/11
OREGON INLET     0400   55 63  350/ 11/ 14 1017.2
13E OREGON INLT  0500      56                N/A     4/ 8   3/ 8
HATTERAS CG      0400   59 71  360/ 13/ 16 1016.2
DIAMOND BUOY     0450   59 75   20/ 14/ 17 1016.7    4/ 5   2/ 9
CAPE LOOKOUT     0500   65      80/  8/  8 1016.0
BEAUFORT LAB     0400   64 68  180/  1/  1 1015.0
30 SE NEW RVR IN 0425      67                N/A     2/ 6
27 SE WRIGHTSVLE 0408   68 69   80/ 10/ 14 1015.5
5 SE WRIGHTSVLE  0408   68 68  110/ 10/ 14 1016.4
225 S CAPE HAT   0450   72 71   30/ 10/ 12 1015.3    3/ 6   3/ 6
41 SE CHARLESTON 0450   74 73  130/  8/  8 1015.1    2/ 9   2/ 9

$$



USA.gov is the U.S. government's official web portal to all federal, state and local government web resources and services.